Regional Weather Roundup
Issued by NWS Grand Forks, ND

Home | Current Version | Previous Version | Graphics & Text | Print | Product List | Glossary On
Versions: 1 2 3 4 5 6 7 8 9 10 11 12 13 14 15 16 17 18 19 20 21 22 23 24 25 26 27 28 29 30 31 32 33 34 35 36 37 38 39 40 41 42 43 44 45 46 47 48 49 50
000
ASUS43 KFGF 021831
RWRFGF
PRAIRIE TO PINES  WEATHER ROUNDUP
NATIONAL WEATHER SERVICE EASTERN NORTH DAKOTA/GRAND FORKS ND
1200 PM CST MON MAR 02 2015

 **SATELLITE DATA USED TO AUGMENT SKY COVER AT AUTOMATED STATIONS**
 *****  WEATHER ACROSS EASTERN NORTH DAKOTA  *****

CITY           SKY/WX    TMP DP  RH WIND       PRES   REMARKS
GRAND FORKS    PTSUNNY   20  12  71 S15       30.20F WCI   6
6HR MIN TEMP:  -5; 6HR MAX TEMP:  20;

GRAND FRKS AFB SUNNY     28  12  51 S21G28    30.17F WCI  14
GRAND FRKS NWS   N/A     23 N/A N/A S21         N/A  WCI   8
DEVILS LAKE    SUNNY     25  16  68 S22G29    30.04F WCI  10
6HR MIN TEMP:  -6; 6HR MAX TEMP:  25;

FARGO          SUNNY     28  10  46 S21       30.24F WCI  15
WAHPETON ARPT  CLEAR     28   9  43 S20G26    30.26F WCI  15
$$

 ***** WEATHER ACROSS CENTRAL AND WESTERN NORTH DAKOTA  *****

CITY           SKY/WX    TMP DP  RH WIND       PRES   REMARKS
BISMARCK       SUNNY     31  15  52 S18       29.96F WCI  19
6HR MIN TEMP:   4; 6HR MAX TEMP:  31;

MINOT          SUNNY     23  13  65 S24G35    29.89F WCI   7
6HR MIN TEMP:   5; 6HR MAX TEMP:  23;

JAMESTOWN      SUNNY     23  14  68 S25G31    30.10F WCI   7
6HR MIN TEMP:  -5; 6HR MAX TEMP:  23;

MINOT AFB      SUNNY     23  16  75 S21       29.89F WCI   8
GARRISON         N/A     27  15  61 S20G25    29.90F WCI  13
WILLISTON      SUNNY     31  14  49 S14G20    29.81F WCI  21
6HR MIN TEMP:  11; 6HR MAX TEMP:  31;

DICKINSON      SUNNY     32  15  49 S15       29.80F WCI  22
6HR MIN TEMP:  11; 6HR MAX TEMP:  32;

HETTINGER      SUNNY     31  13  47 S13G20    29.86F WCI  21
6HR MIN TEMP:  10; 6HR MAX TEMP:  31;

$$

 *****  OTHER AIRPORT OBSERVATIONS IN OUR AREA  *****

CITY           SKY/WX    TMP DP  RH WIND       PRES   REMARKS
WALHALLA         N/A     25  12  58 S16       30.09F WCI  12
GRAFTON AIRPOR NOT AVBL
VALLEY CITY AR MIX PCPN  23  14  68 S18G25    30.14F WCI   9
CANDO          FAIR      25  16  68 S22G28    30.00F WCI  10
CAVALIER APRT  FAIR      27  14  59 S15G23    30.11F WCI  15
GWINNER        CLEAR     30  18  59 S22G28    30.19F WCI  17
SHEYENNE NWR     N/A     29  10  44 S14       29.95  WCI  18
ROLLA          FAIR      19  16  86 S21G26    29.94F WCI   3
 ***** THE ABOVE OBSERVATIONS ARE NON NWS ARE NOT QUALITY
       CONTROLLED AND MAY MIS-REPORT RAIN FOR SNOW...
$$

  *****  WEATHER ACROSS NORTHERN MINNESOTA  *****

CITY           SKY/WX    TMP DP  RH WIND       PRES   REMARKS
FLAG ISLAND    SUNNY      9   3  78 SE12      30.20F WCI  -6
WARROAD        SUNNY     21  12  68 SW9       30.21F WCI  11
ROSEAU         SUNNY     19  12  73 S13       30.20F WCI   7
HALLOCK        SUNNY     16  12  86 S17       30.18F WCI   0
THF RVR FALLS  SUNNY     18   9  68 S14       30.22F WCI   4
6HR MIN TEMP:  -4; 6HR MAX TEMP:  18;

BAUDETTE       SUNNY     19   9  65 S8        30.22F WCI   9
6HR MIN TEMP: -10; 6HR MAX TEMP:  19;

WASKISH        SUNNY     25  12  58 CALM      30.24F
CROOKSTON      SUNNY     21  14  73 S17       30.23F WCI   7
STEPHEN NDAWN    N/A     18  10  73 S16         N/A  WCI   3
GREENBUSH NDAW   N/A     19  12  73 N15         N/A  WCI   5
$$
  *****  WEATHER ACROSS CENTRAL AND WEST MINNESOTA  *****

CITY           SKY/WX    TMP DP  RH WIND       PRES   REMARKS
FOSSTON        SUNNY     21  10  63 S20G25    30.24F WCI   6
BEMIDJI        SUNNY     24   8  51 S9        30.24F WCI  14
PARK RAPIDS    SUNNY     22   7  52 SW10      30.28F WCI  11
6HR MIN TEMP:  -6; 6HR MAX TEMP:  22;

ELBOW LAKE     FAIR      24  12  62 S22       30.28F WCI   8
6HR MIN TEMP:  -1; 6HR MAX TEMP:  23;

WADENA         SUNNY     23   9  54 S13G20    30.28F WCI  11
DETROIT LAKES  SUNNY     23  10  58 S16       30.26F WCI  10
MOORHEAD       SUNNY     28   7  40 S21G29    30.25F WCI  15
FERGUS FALLS   SUNNY     25   9  50 S23       30.30F WCI  10
MORRIS MN      SUNNY     27  10  50 S20       30.29F WCI  13
STAPLES        SUNNY     23   9  54 MISG      30.31F
$$
  *****  WEATHER ELSEWHERE ACROSS MINNESOTA  *****

CITY           SKY/WX    TMP DP  RH WIND       PRES   REMARKS
DULUTH         SUNNY     22   8  55 W12       30.33F WCI  10
6HR MIN TEMP:   1; 6HR MAX TEMP:  23;

INTRNTL FALLS  SUNNY     21   6  52 SW13      30.27F WCI   9
6HR MIN TEMP: -15; 6HR MAX TEMP:  21;

ELY            SUNNY     21   5  49 SW10G16   30.29F WCI  10
CLOQUET        SUNNY     23   9  54 SW9       30.34F WCI  13
WHEATON        SUNNY     25  10  54 SE18G25   30.29F WCI  11
BRAINERD       SUNNY     22   7  52 S9        30.33F WCI  12
6HR MIN TEMP:  -6; 6HR MAX TEMP:  22;

HIBBING        SUNNY     21   6  52 SW6       30.31F WCI  13
6HR MIN TEMP: -10; 6HR MAX TEMP:  22; 6HR PCP: TRACE;

ALEXANDRIA     SUNNY     21   8  57 S15       30.32F WCI   8
6HR MIN TEMP:   0; 6HR MAX TEMP:  21;

SAINT CLOUD    SUNNY     24   7  48 S14       30.39F WCI  12
6HR MIN TEMP:   0; 6HR MAX TEMP:  24;

MINNEAPOLIS    MOSUNNY   23   4  44 S9        30.45F WCI  13
6HR MIN TEMP:   9; 6HR MAX TEMP:  23;

$$

  *****  WEATHER ACROSS SOUTH DAKOTA  *****

CITY           SKY/WX    TMP DP  RH WIND       PRES   REMARKS
SIOUX FALLS    CLOUDY    27  16  63 SE17G25   30.31F WCI  14
6HR MIN TEMP:   2; 6HR MAX TEMP:  27;

BROOKINGS      NOT AVBL
WATERTOWN      PTSUNNY   23  14  68 S20G25    30.23F WCI   8
6HR MIN TEMP:  -2; 6HR MAX TEMP:  23;

HURON          CLOUDY    30  17  58 S21G31    30.20F WCI  17
6HR MIN TEMP:   5; 6HR MAX TEMP:  30;

SISSETON         N/A     28  11  48 S21       30.25F WCI  15
ABERDEEN       SUNNY     28  16  60 S26G33    30.17F WCI  13
6HR MIN TEMP:   4; 6HR MAX TEMP:  28;

MITCHELL       CLOUDY    33  14  45 S24       30.24F WCI  20
PIERRE         SUNNY     39  15  37 S30G37    30.03F
6HR MIN TEMP:  13; 6HR MAX TEMP:  40;

MOBRIDGE       SUNNY     33  19  56 S24G32    29.97F WCI  20
RAPID CITY     MOSUNNY   40  22  48 S21       29.84F
6HR MIN TEMP:  14; 6HR MAX TEMP:  40;

$$

  *****  SOME WEATHER IN NEARBY STATES *****

CITY           SKY/WX    TMP DP  RH WIND       PRES   REMARKS
GLASGOW MT     SUNNY     31  12  45 W10       29.78S WCI  22
6HR MIN TEMP:  15; 6HR MAX TEMP:  31;

GREAT FALLS MT CLOUDY    30  21  69 N15       29.89R WCI  19
6HR MIN TEMP:  24; 6HR MAX TEMP:  33;

CHEYENNE WY    MOSUNNY   27  21  78 SW7       29.82F WCI  19
6HR MIN TEMP:  19; 6HR MAX TEMP:  25;

SCOTTSBLUFF NE MOSUNNY   39  23  52 S13       29.91F
6HR MIN TEMP:  29; 6HR MAX TEMP:  40;

OMAHA NE       PTSUNNY   33  19  56 SE15      30.39F WCI  23
6HR MIN TEMP:  17; 6HR MAX TEMP:  34;

DES MOINES IA  CLOUDY    29  13  51 S3        30.47F
6HR MIN TEMP:  17; 6HR MAX TEMP:  29;

DAVENPORT IA   SUNNY     22  13  68 CALM      30.52F
6HR MIN TEMP:   2; 6HR MAX TEMP:  23;

CHICAGO IL     PTSUNNY   27  11  51 CALM      30.51F
6HR MIN TEMP:  13; 6HR MAX TEMP:  29;

EAU CLAIRE WI  SUNNY     21   6  52 VRB3      30.46F
6HR MIN TEMP:   0; 6HR MAX TEMP:  21;

LA CROSSE WI   SUNNY     25   9  50 CALM      30.49F
6HR MIN TEMP:   5; 6HR MAX TEMP:  25;

$$

  *****  SOME NATIONAL WEATHER *****

CITY           SKY/WX    TMP DP  RH WIND       PRES   REMARKS
LA GUARDIA NY  MOSUNNY   36  16  44 NW20G26   30.14F
6HR MIN TEMP:  31; 6HR MAX TEMP:  36; 6HR PCP: TRACE;

RALEIGH NC     PTSUNNY   58  39  49 VRB7      30.24F
6HR MIN TEMP:  37; 6HR MAX TEMP:  58;

ATLANTA GA     PTSUNNY   61  51  70 W9        30.30F
6HR MIN TEMP:  47; 6HR MAX TEMP:  62; 6HR PCP: TRACE;

NEW ORLEANS LA PTSUNNY   74  68  81 S14       30.26F
6HR MIN TEMP:  61; 6HR MAX TEMP:  75;

OKLAHOMA CITY  CLOUDY    34  25  69 SE3       30.34F
6HR MIN TEMP:  29; 6HR MAX TEMP:  34;

ALBUQUERQUE NM CLOUDY    46  32  58 N6        30.02F
6HR MIN TEMP:  35; 6HR MAX TEMP:  46;

SALT LAKE CITY CLOUDY    38  33  82 SE3       29.76S
6HR MIN TEMP:  36; 6HR MAX TEMP:  39; 6HR PCP: TRACE;



USA.gov is the U.S. government's official web portal to all federal, state and local government web resources and services.